[[{"header":{"parameterUnit":"m.s-1","parameterCategory":1,"la1":30.2991,"la2":30.254,"lo1":-89.0895,"lo2":-89.0444,"dy":0.0017,"dx":0.0017,"nx":28,"ny":28,"refTime":"2025-12-19T09:00:00:Z","depth":0,"parameterNumber":2,"parameterNumberName":"U-component_of_WINDS"},"data":[0,0,0,0,0,0,0,0,0,0,0,0,0,0,0,0,0,0,0,0,0,0,0,0,0,0,0,0,0,0,0,0,0,0,0,0,0,0,0,0,0,0,0,0,0,0,0,0,0,0,0,0,0,0,0,0,0,0,-4.1223,-4.1223,0,-4.1264,-4.1264,-4.1265,-4.1155,-4.1152,-4.1149,-4.1146,-4.1185,-4.1189,-4.1193,0,0,0,0,0,0,0,0,0,0,0,0,0,-4.1048,-4.1052,-4.1223,-4.1223,-4.1224,-4.1264,-4.1264,-4.1265,-4.1156,-4.1152,-4.1148,-4.1144,-4.1184,-4.1189,-4.1194,0,0,0,0,0,0,0,0,0,0,0,0,0,-4.111,-4.1053,-4.1223,-4.1175,-4.1171,-4.1263,-4.1264,-4.1265,-4.1157,-4.1152,-4.1147,-4.1142,-4.1182,-4.1188,-4.1195,-4.1335,0,0,-4.1214,-4.1217,0,0,0,0,0,0,0,0,-4.1107,-4.1117,-4.1181,-4.1178,-4.1174,-4.1199,-4.1217,-4.1288,-4.1158,-4.1162,-4.1145,-4.114,-4.1194,-4.1199,-4.1218,-4.1337,-4.1339,-4.1214,-4.1218,-4.1221,-4.1223,0,0,0,0,0,0,0,-4.1103,-4.1114,-4.1239,-4.1182,-4.1178,-4.115,-4.1153,-4.123,-4.1206,-4.1161,-4.1154,-4.116,-4.1191,-4.1212,-4.1218,-4.1339,-4.1214,-4.122,-4.1224,-4.1226,-4.1575,-4.158,0,0,0,0,0,0,-4.1105,-4.1111,-4.1237,-4.124,-4.1127,-4.1157,-4.1161,-4.1196,-4.1205,-4.1201,-4.1164,-4.1155,-4.1204,-4.121,-4.1219,-4.1382,-4.1221,-4.1227,-4.123,-4.1569,-4.1576,-4.1582,0,0,0,0,0,0,-4.1102,-4.1117,-4.1236,-4.1174,-4.1187,-4.1166,-4.1206,-4.12,-4.122,-4.1207,-4.1202,-4.119,-4.12,-4.121,-4.1307,-4.1382,-4.123,-4.1235,-4.1563,-4.1572,-4.1579,-4.1713,0,0,0,0,0,0,-4.1097,-4.1117,-4.1171,-4.1176,-4.119,-4.1325,-4.1211,-4.1204,-4.1232,-4.122,-4.123,-4.1227,-4.1197,-4.1298,-4.1313,-4.1388,-4.124,-4.1556,-4.1567,-4.1576,-4.1701,-4.1724,-4.1744,0,0,0,0,0,-4.1091,-4.1206,-4.1174,-4.119,-4.1257,-4.1329,-4.1337,-4.1301,-4.1239,-4.1292,-4.1283,-4.1226,-4.1372,-4.1309,-4.1325,-4.1403,-4.1551,-4.1564,-4.1576,-4.1692,-4.172,-4.1744,0,0,0,0,0,0,-4.121,-4.1206,-4.117,-4.129,-4.1311,-4.1311,-4.1376,-4.1332,-4.137,-4.1357,-4.1309,-4.1313,-4.1418,-4.1421,-4.135,-4.1539,-4.1451,-4.1467,-4.1534,-4.156,-4.1581,-4.1577,-4.1246,0,0,0,0,0,-4.125,-4.1309,-4.1303,-4.1409,-4.1422,-4.1398,-4.1428,-4.1398,-4.1417,-4.1425,-4.1423,-4.1443,-4.1493,-4.1527,-4.1573,-4.1702,-4.1701,-4.1764,-4.1785,-4.1803,-4.1816,-4.1883,-4.191,-4.1622,-4.1622,-4.1622,0,0,-4.1333,-4.1339,-4.1379,-4.1433,-4.1446,-4.1507,-4.1406,-4.1475,-4.152,-4.1435,-4.1526,-4.1526,-4.1545,-4.1659,-4.1709,-4.1664,-4.1896,-4.1818,-4.1833,-4.1837,-4.1899,-4.1926,-4.195,-4.1631,-4.1629,-4.1628,0,0,-4.1516,-4.1527,-4.1616,-4.1631,-4.1652,-4.1635,-4.1657,-4.1664,-4.166,-4.1751,-4.1689,-4.1741,-4.1829,-4.1845,-4.1864,-4.2054,-4.2003,-4.207,-4.2181,-4.2247,-4.227,-4.229,-4.2355,-4.238,-4.2085,-4.2085,-4.2085,0,-4.1616,-4.1707,-4.1668,-4.1742,-4.1767,-4.1694,-4.1783,-4.18,-4.1834,-4.1852,-4.1802,-4.191,-4.1918,-4.2034,-4.208,-4.2099,-4.2121,-4.2068,-4.227,-4.2289,-4.2307,-4.2369,-4.2395,-4.2093,-4.2092,-4.2091,-4.209,0,-4.1829,-4.1893,-4.1963,-4.1998,-4.2031,-4.2113,-4.2085,-4.2123,-4.2091,-4.208,-4.2173,-4.218,-4.2225,-4.2251,-4.222,-4.2362,-4.2334,-4.2278,-4.2188,-4.2343,-4.2401,-4.2425,-4.2104,-4.2101,-4.2099,-4.2097,0,0,-4.2086,-4.2099,-4.2125,-4.214,-4.2157,-4.2205,-4.2283,-4.2328,-4.2361,-4.2388,-4.2451,-4.2527,-4.2475,-4.2498,-4.2468,-4.2527,-4.2674,-4.2463,-4.2463,-4.25,-4.2829,-4.287,-4.2898,-4.2641,-4.2646,-4.2649,-4.2827,0,-4.2264,-4.2398,-4.2365,-4.2498,-4.2555,-4.2488,-4.2555,-4.2573,-4.2565,-4.2612,-4.2602,-4.2657,-4.2585,-4.2598,-4.2653,-4.2645,-4.2739,-4.2632,-4.2698,-4.2701,-4.2693,-4.2928,-4.2971,-4.3138,-4.2849,-4.2853,-4.2856,0,-4.249,-4.2526,-4.2664,-4.2672,-4.2695,-4.2756,-4.2794,-4.2841,-4.2859,-4.2849,-4.2875,-4.2834,-4.291,-4.2821,-4.2924,-4.2852,-4.2877,-4.2877,-4.2883,-4.2885,-4.2786,-4.2935,-4.3191,-4.3215,-4.2892,-4.2889,-4.2886,0,-4.2661,-4.2744,-4.2837,-4.2852,-4.2864,-4.2908,-4.2915,-4.2929,-4.2958,-4.2991,-4.3009,-4.3051,-4.3073,-4.3107,-4.3077,-4.3016,-4.3185,-4.3094,-4.3177,-4.3178,-4.3213,-4.3211,-4.3475,-4.3234,-4.3234,-4.3233,-4.3233,0,-4.2863,-4.295,-4.2914,-4.2971,-4.3066,-4.3027,-4.3122,-4.3121,-4.3134,-4.3188,-4.3133,-4.3186,-4.3145,-4.3194,-4.3172,-4.326,-4.3271,-4.3264,-4.3256,-4.3268,-4.3268,-4.3282,-4.3268,-4.324,-4.3238,-4.3237,-4.3236,0,-4.3068,-4.3048,-4.3145,-4.3149,-4.3151,-4.3221,-4.3223,-4.3276,-4.3264,-4.3334,-4.3349,-4.333,-4.3385,-4.336,-4.3417,-4.3402,-4.3515,-4.3493,-4.3508,-4.3502,-4.3586,-4.3577,-4.3865,-4.39,-4.3639,-4.3642,-4.3644,0,-4.3197,-4.3262,-4.3273,-4.3307,-4.3317,-4.3372,-4.3401,-4.3366,-4.3398,-4.3425,-4.3474,-4.3524,-4.3562,-4.3652,-4.3643,-4.3687,-4.3664,-4.3762,-4.367,-4.3679,-4.3663,-4.3659,-4.3664,-4.378,-4.3783,-4.3785,-4.3787,0,-4.3427,-4.3414,-4.3459,-4.3501,-4.3538,-4.3569,-4.3595,-4.3625,-4.3591,-4.363,-4.3686,-4.3715,-4.3774,-4.3824,-4.3862,-4.3868,-4.3822,-4.3817,-4.3838,-4.3849,-4.3854,-4.385,-4.3556,-4.381,-4.3807,-4.3806,-4.3805,-4.3804,-4.3597,-4.3651,-4.3667,-4.3719,-4.3735,-4.3761,-4.381,-4.3805,-4.3851,-4.3896,-4.3873,-4.3937,-4.3954,-4.4,-4.4013,-4.4062,-4.4023,-4.4054,-4.4061,-4.4069,-4.4079,-4.3849,-4.4069,-4.4068,-4.4068,-4.4067,-4.4067,0,-4.3822,-4.3829,-4.3878,-4.3916,-4.3957,-4.3911,-4.3938,-4.3974,-4.4032,-4.4052,-4.409,-4.4154,-4.4202,-4.4198,-4.4242,-4.4282,-4.4262,-4.4295,-4.429,-4.4292,-4.4113,-4.4089,-4.431,-4.431,-4.431,-4.431,-4.431,-4.431,-4.3944,-4.4033,-4.4022,-4.4118,-4.4124,-4.4188,-4.4207,-4.423,-4.4245,-4.4319,-4.4359,-4.4356,-4.4366,-4.441,-4.4452,-4.4449,-4.4467,-4.4507,-4.4497,-4.4329,-4.4305,-4.4281,-4.4259,-4.4512,-4.4513,-4.4671,-4.4673,-4.4674]},{"header":{"parameterUnit":"m.s-1","parameterCategory":1,"la1":30.2991,"la2":30.254,"lo1":-89.0895,"lo2":-89.0444,"dy":0.0017,"dx":0.0017,"nx":28,"ny":28,"refTime":"2025-12-19T09:00:00:Z","depth":0,"parameterNumber":3,"parameterNumberName":"V-component_of_WINDS"},"data":[0,0,0,0,0,0,0,0,0,0,0,0,0,0,0,0,0,0,0,0,0,0,0,0,0,0,0,0,0,0,0,0,0,0,0,0,0,0,0,0,0,0,0,0,0,0,0,0,0,0,0,0,0,0,0,0,0,0,0.8179,0.8179,0,0.8113,0.8112,0.8111,0.8039,0.8038,0.8037,0.8036,0.7966,0.7965,0.7964,0,0,0,0,0,0,0,0,0,0,0,0,0,0.8243,0.8242,0.818,0.8179,0.8178,0.8113,0.8112,0.8111,0.8039,0.8038,0.8037,0.8036,0.7966,0.7965,0.7964,0,0,0,0,0,0,0,0,0,0,0,0,0,0.82,0.8242,0.818,0.8134,0.813,0.8113,0.8112,0.8111,0.804,0.8038,0.8037,0.8035,0.7966,0.7965,0.7964,0.7986,0,0,0.796,0.7959,0,0,0,0,0,0,0,0,0.8202,0.8197,0.8142,0.8137,0.8132,0.8083,0.8109,0.8069,0.804,0.8074,0.8036,0.8034,0.8006,0.8001,0.7992,0.7983,0.798,0.7959,0.7959,0.7958,0.7958,0,0,0,0,0,0,0,0.8205,0.82,0.8153,0.8141,0.8135,0.8117,0.8109,0.8101,0.8049,0.8071,0.8065,0.8059,0.8003,0.7994,0.799,0.7979,0.796,0.7958,0.7957,0.7957,0.7985,0.7987,0,0,0,0,0,0,0.8215,0.8203,0.8155,0.8151,0.8164,0.8117,0.8108,0.81,0.8049,0.804,0.806,0.8055,0.7997,0.7991,0.7987,0.801,0.7958,0.7957,0.7956,0.7984,0.7986,0.7987,0,0,0,0,0,0,0.8217,0.8212,0.8158,0.8176,0.8167,0.8117,0.8109,0.81,0.809,0.8041,0.8031,0.806,0.7995,0.7989,0.7987,0.8007,0.7956,0.7955,0.7982,0.7984,0.7987,0.8057,0,0,0,0,0,0,0.8219,0.8213,0.8221,0.8176,0.8167,0.816,0.811,0.81,0.8088,0.8082,0.8038,0.803,0.7994,0.799,0.7986,0.8004,0.7954,0.798,0.7983,0.7986,0.8052,0.8061,0.8069,0,0,0,0,0,0.8222,0.8243,0.8222,0.8217,0.8176,0.8161,0.8155,0.8114,0.809,0.8098,0.8066,0.8031,0.8006,0.799,0.7985,0.8003,0.7979,0.7982,0.7986,0.8049,0.8059,0.8068,0,0,0,0,0,0,0.829,0.8236,0.8212,0.822,0.8196,0.8149,0.8157,0.8127,0.8108,0.8103,0.8051,0.8042,0.8047,0.8025,0.8009,0.8022,0.7987,0.799,0.8037,0.8046,0.8054,0.8059,0.7953,0,0,0,0,0,0.8306,0.8299,0.8252,0.8263,0.8253,0.8207,0.8199,0.817,0.8142,0.8132,0.81,0.8074,0.806,0.8052,0.8037,0.8049,0.8039,0.8059,0.8067,0.8074,0.8077,0.8082,0.8091,0.7999,0.7999,0.7999,0,0,0.8339,0.8309,0.8307,0.8276,0.8254,0.8248,0.8199,0.8194,0.8189,0.813,0.8127,0.8103,0.8071,0.8077,0.8078,0.8059,0.81,0.8079,0.8085,0.8083,0.8087,0.8096,0.8104,0.8002,0.8001,0.8001,0,0,0.8395,0.8372,0.8379,0.8358,0.8326,0.8296,0.8298,0.8256,0.8238,0.8234,0.8191,0.8184,0.8161,0.814,0.8126,0.8177,0.8144,0.8173,0.8216,0.8222,0.8229,0.8235,0.8253,0.826,0.8176,0.8177,0.8177,0,0.844,0.8429,0.8386,0.8384,0.8372,0.832,0.8327,0.8309,0.8273,0.8265,0.8245,0.8216,0.819,0.8191,0.8204,0.8194,0.8195,0.8178,0.8231,0.8237,0.8242,0.8259,0.8266,0.818,0.818,0.818,0.8179,0,0.8485,0.8479,0.8488,0.8456,0.8445,0.8447,0.8404,0.8398,0.837,0.8342,0.834,0.8308,0.8285,0.8283,0.8255,0.828,0.8269,0.8241,0.8204,0.8256,0.827,0.8276,0.8186,0.8185,0.8183,0.8182,0,0,0.8582,0.8527,0.8531,0.8516,0.8478,0.8471,0.8472,0.8451,0.8447,0.8424,0.8423,0.8406,0.8379,0.8364,0.8334,0.8339,0.8381,0.831,0.8308,0.8324,0.8407,0.8429,0.8437,0.836,0.8361,0.8362,0.841,0,0.8631,0.8629,0.8591,0.8599,0.8593,0.8545,0.8545,0.8521,0.8496,0.8486,0.8457,0.8446,0.8412,0.8403,0.8406,0.8376,0.8397,0.8372,0.8358,0.8358,0.8367,0.8444,0.8467,0.8514,0.8415,0.8416,0.8417,0,0.8688,0.867,0.8679,0.8641,0.8636,0.8637,0.8616,0.8607,0.8579,0.8561,0.8545,0.8511,0.8508,0.8474,0.847,0.8453,0.8445,0.843,0.8431,0.8427,0.839,0.8443,0.8528,0.8535,0.8426,0.8425,0.8424,0,0.8757,0.8735,0.8738,0.8726,0.8682,0.8684,0.8666,0.8637,0.8627,0.8608,0.8601,0.8582,0.8571,0.8557,0.8519,0.8498,0.8519,0.8482,0.8503,0.8504,0.8509,0.8509,0.8593,0.8505,0.8505,0.8504,0.8504,0,0.8816,0.8823,0.8768,0.877,0.8776,0.8733,0.874,0.8717,0.8692,0.8688,0.8645,0.8641,0.8591,0.8582,0.8552,0.8553,0.8549,0.8533,0.8525,0.8537,0.8539,0.853,0.8526,0.8506,0.8506,0.8505,0.8505,0,0.8894,0.8858,0.8857,0.8816,0.8806,0.8813,0.8777,0.8777,0.875,0.8745,0.8741,0.8698,0.8685,0.8646,0.8623,0.8603,0.8613,0.8598,0.8623,0.8618,0.8641,0.8639,0.8723,0.8731,0.8638,0.8639,0.864,0,0.8934,0.8938,0.8898,0.8893,0.8877,0.8869,0.8859,0.8817,0.8808,0.8778,0.8781,0.8766,0.8751,0.8733,0.8699,0.8682,0.8665,0.8696,0.8662,0.8675,0.8666,0.8666,0.8666,0.8703,0.8704,0.8705,0.8706,0,0.9008,0.899,0.8978,0.8961,0.8951,0.8934,0.8916,0.8914,0.8866,0.8859,0.8846,0.8835,0.8813,0.8798,0.8775,0.8756,0.8723,0.8717,0.8721,0.8733,0.8747,0.874,0.8643,0.8715,0.8714,0.8714,0.8713,0.8713,0.9068,0.907,0.9043,0.9031,0.9013,0.8997,0.8994,0.8967,0.8956,0.8936,0.8911,0.8902,0.8874,0.8841,0.8824,0.8816,0.8798,0.8804,0.8805,0.8807,0.8813,0.8749,0.8812,0.8811,0.8811,0.8811,0.8811,0,0.914,0.912,0.911,0.9086,0.9077,0.9049,0.9027,0.9021,0.9013,0.8991,0.8978,0.8964,0.895,0.8916,0.8898,0.8898,0.8883,0.8895,0.8894,0.889,0.883,0.8828,0.8908,0.8908,0.8908,0.8908,0.8907,0.8907,0.9176,0.9178,0.9158,0.9151,0.913,0.9122,0.9112,0.9096,0.9079,0.9065,0.9054,0.9032,0.9005,0.8985,0.8971,0.8961,0.8957,0.8974,0.8959,0.8903,0.8894,0.8885,0.8884,0.8973,0.8973,0.902,0.9021,0.9021]}]]